Bolton Field, OH

11:54 AM EDT on April 19, 2018 (GMT -0400)
Bolton

Weather History for KTZR - July, 2013

Change the Weather History Date:

Wednesday, July 10, 2013

  Actual Average Record
Temperature  
Mean Temperature 76 °F -  
Max Temperature 87 °F 81 °F 89 °F (2001)
Min Temperature 64 °F 62 °F 55 °F (2005)
Cooling Degree Days 10    
Growing Degree Days 26 (Base 50)    
Moisture  
Dew Point 71 °F    
Average Humidity 95    
Maximum Humidity 100    
Minimum Humidity 74    
Precipitation  
Precipitation 0.01 in - - ()
Sea Level Pressure  
Sea Level Pressure 29.96 in    
Wind  
Wind Speed 5 mph (SSW)    
Max Wind Speed 28 mph    
Max Gust Speed 41 mph    
Visibility 8 miles    
Events Rain , Thunderstorm    
Averages and records for this station are not official NWS values.
T = Trace of Precipitation, MM = Missing Value Source: NWS Daily Summary

Daily Weather History Graph

Daily Weather History Graph

Search for Another Location

Airport or City:

Astronomy

Jul. 10, 2013 Rise Set
Actual Time 6:13 AM EDT 9:02 PM EDT
Civil Twilight 5:41 AM EDT 9:34 PM EDT
Nautical Twilight 5:00 AM EDT 10:14 PM EDT
Astronomical Twilight 4:14 AM EDT 11:00 PM EDT
Moon 8:32 AM EDT (7/10) 10:11 PM EDT (7/10)
Length of Visible Light 15h 53m
Length of Day
14h 49m
Waxing Crescent, 5% of the Moon is Illuminated
Jul 10
Waxing Crescent
Jul 15
First Quarter
Jul 22
Full
Jul 29
Last Quarter
Aug 6
New

Hourly Weather History & Observations

Time (EDT) Temp. Heat Index Dew Point Humidity Pressure Visibility Wind Dir Wind Speed Gust Speed Precip Events Conditions
12:15 AM 72.0 °F - 72.0 °F 100% 30.03 in 5.0 mi Calm Calm - N/A   Scattered Clouds
12:35 AM 72.0 °F - 72.0 °F 100% 30.02 in 4.0 mi Calm Calm - N/A   Scattered Clouds
12:55 AM 71.8 °F - 71.8 °F 100% 30.01 in 5.0 mi Calm Calm - N/A   Mostly Cloudy
1:15 AM 71.6 °F - 71.6 °F 100% 30.01 in 4.0 mi ESE 3.5 mph - N/A   Overcast
1:35 AM 71.8 °F - 71.8 °F 100% 30.00 in 4.0 mi SSE 3.5 mph - N/A   Overcast
1:55 AM 71.8 °F - 71.8 °F 100% 30.00 in 4.0 mi South 3.5 mph - N/A   Mostly Cloudy
2:15 AM 71.8 °F - 71.8 °F 100% 29.99 in 4.0 mi South 3.5 mph - N/A   Mostly Cloudy
2:35 AM 72.1 °F - 72.1 °F 100% 29.99 in 5.0 mi South 4.6 mph - N/A   Overcast
2:55 AM 72.5 °F - 72.5 °F 100% 29.99 in 5.0 mi South 5.8 mph - N/A   Overcast
3:15 AM 72.9 °F - 72.9 °F 100% 29.98 in 7.0 mi South 5.8 mph - N/A   Mostly Cloudy
3:55 AM 72.9 °F - 72.9 °F 100% 29.98 in 7.0 mi South 5.8 mph - N/A   Mostly Cloudy
4:15 AM 73.4 °F - 73.0 °F 99% 29.97 in 7.0 mi South 6.9 mph - N/A   Mostly Cloudy
4:35 AM 73.8 °F - 73.2 °F 98% 29.97 in 7.0 mi SSW 5.8 mph - N/A   Overcast
4:55 AM 74.3 °F - 73.2 °F 96% 29.97 in 10.0 mi SSW 8.1 mph - N/A   Overcast
5:15 AM 74.3 °F - 73.2 °F 96% 29.97 in 10.0 mi SSW 6.9 mph - N/A   Overcast
5:35 AM 74.3 °F - 73.0 °F 96% 29.97 in 10.0 mi SSW 8.1 mph - N/A   Overcast
5:55 AM 73.9 °F - 72.9 °F 96% 29.97 in 10.0 mi SSW 6.9 mph - N/A   Mostly Cloudy
6:15 AM 73.9 °F - 73.0 °F 97% 29.97 in 10.0 mi SSW 8.1 mph - N/A   Mostly Cloudy
6:35 AM 73.8 °F - 72.9 °F 97% 29.97 in 7.0 mi SW 5.8 mph - N/A Thunderstorm Mostly Cloudy
6:55 AM 74.5 °F - 73.2 °F 96% 29.97 in 10.0 mi SW 12.7 mph 20.7 mph N/A Rain , Thunderstorm Light Thunderstorms and Rain
7:15 AM 71.4 °F - 68.5 °F 91% 29.97 in 3.0 mi South 4.6 mph - 0.01 in Thunderstorm Thunderstorm
7:20 AM 73.4 °F - 68.0 °F 83% 29.97 in 7.0 mi SW 9.2 mph - N/A Thunderstorm Thunderstorm
8:50 AM 78.8 °F - 73.4 °F 83% 29.96 in 10.0 mi SSW 6.9 mph - N/A   Clear
10:50 AM 82.4 °F 89.5 °F 75.2 °F 79% 29.95 in 10.0 mi SW 9.2 mph - N/A   Clear
11:50 AM 84.2 °F 96.1 °F 78.8 °F 84% 29.93 in 10.0 mi SW 11.5 mph - N/A   Clear
12:50 PM 86.0 °F 99.3 °F 78.8 °F 79% 29.92 in 10.0 mi WSW 11.5 mph 17.3 mph N/A   Scattered Clouds
1:50 PM 87.8 °F 102.5 °F 78.8 °F 75% 29.92 in 10.0 mi WSW 15.0 mph - N/A   Mostly Cloudy
2:50 PM 86.0 °F 96.9 °F 77.0 °F 74% 29.87 in 10.0 mi SSW 12.7 mph 21.9 mph N/A   Mostly Cloudy
3:50 PM 84.2 °F 94.1 °F 77.0 °F 79% 29.87 in 10.0 mi SW 9.2 mph 17.3 mph N/A   Scattered Clouds
3:58 PM 84.2 °F 92.3 °F 75.2 °F 74% 29.89 in 1.0 mi SW 27.6 mph 41.4 mph N/A Rain , Thunderstorm Heavy Thunderstorms and Rain
4:30 PM 64.4 °F - 64.4 °F 100% 29.94 in 5.0 mi West 10.4 mph 21.9 mph N/A Rain Light Rain
4:47 PM 64.4 °F - 64.4 °F 100% 29.92 in 7.0 mi NW 8.1 mph - N/A Rain Light Rain
5:47 PM 66.2 °F - 66.2 °F 100% 29.89 in 10.0 mi East 4.6 mph - N/A   Scattered Clouds
6:47 PM 68.0 °F - 66.2 °F 94% 29.90 in 10.0 mi ESE 4.6 mph - N/A   Scattered Clouds
7:35 PM 68.9 °F - 66.6 °F 92% 29.94 in 10.0 mi SE 8.1 mph - N/A   Clear
7:55 PM 68.5 °F - 66.7 °F 94% 29.94 in 10.0 mi SSE 3.5 mph - N/A   Clear
8:15 PM 68.4 °F - 66.6 °F 94% 29.95 in 10.0 mi Calm Calm - N/A   Clear
8:35 PM 68.2 °F - 66.7 °F 95% 29.95 in 10.0 mi South 3.5 mph - N/A   Clear
8:55 PM 67.6 °F - 67.1 °F 98% 29.95 in 10.0 mi South 3.5 mph - N/A   Scattered Clouds
9:15 PM 67.6 °F - 67.5 °F 99% 29.96 in 10.0 mi SSW 3.5 mph - N/A   Overcast
9:35 PM 67.5 °F - 67.5 °F 100% 29.96 in 10.0 mi Calm Calm - N/A   Overcast
9:55 PM 67.1 °F - 67.1 °F 100% 29.96 in 10.0 mi Calm Calm - N/A   Overcast
10:15 PM 66.9 °F - 66.9 °F 100% 29.97 in 10.0 mi WSW 3.5 mph - N/A   Overcast
10:35 PM 66.4 °F - 66.4 °F 100% 29.98 in 10.0 mi Calm Calm - N/A   Scattered Clouds
10:55 PM 65.8 °F - 65.8 °F 100% 29.98 in 10.0 mi SSW 3.5 mph - N/A   Clear
11:15 PM 65.8 °F - 65.8 °F 100% 29.98 in 10.0 mi South 3.5 mph - N/A   Scattered Clouds
11:35 PM 65.7 °F - 65.7 °F 100% 29.98 in 10.0 mi SSW 4.6 mph - N/A   Scattered Clouds
11:55 PM 65.8 °F - 65.8 °F 100% 29.98 in 10.0 mi South 4.6 mph - N/A   Scattered Clouds